Showing default

IRIDIUM 29, 24944

Orbit data source: Space-Track

IRIDIUM 29, 24944 is a payload satellite owned by Iridium (US) in LEO that was launched on Sun, 14 Sep 1997 UTC via a PROTON-K/17S40 launch vehicle from the Tyuratam Missile And Space Complex (TTMTR). Payload-class satellites include a variety of spacecraft equipped with specific instruments for various scientific and technological missions. These include communications satellites like Starlink; space stations such as the ISS; scientific satellites like the Hubble; Earth observation satellites from companies like Planet Labs, Umbra, and HawkEye 360; GPS; miniature CubeSats for education and research; and military/defense satellites.

Loading next visibility...
Identifier
24944, 1997-051A
Orbit
LEO
Country
Flag of USUS
Related business
Manufacturer
MOTO/LMMS
Mission
Non-operational Commercial Communications
Bus & Motor
LM700, Unknown motor
Mass
662 kg wet, 556 kg dry
Launch date (UTC)
1997-09-14 (28 years ago)
Launch vehicle
PROTON-K/17S40
Launch site
Tyuratam Missile And Space Complex (TTMTR)
Object type
Payload
Rocket body
Debris
Shape & HBR
Box + 2 Pan, 4.0 m
Radar Cross Section
5.666 m², Large (>1 m²)

Expand to show TLE details & history
Last TLE update: 6 hours ago

TLE from 6 hours ago
0 IRIDIUM 29
1 24944U 97051A   25304.31778343  .00000706  00000-0  23347-3 0  9990
2 24944  86.3921  86.7561 0002009  96.8978 263.2447 14.36599166472815
Epoch: 2025-10-31T07:37Z
TLE epoch observation values (Epoch: 2025-10-31T07:37:36.488Z)
Latitude
-0.00009°
Longitude
-67.50988°
Altitude
772.98 km
Speed
7.467 km/s
True Right ascension
05h 47m 01s
True Declination
0° 00' 00"
Sunlit
Object was in full shadow at epoch
Visualization orbit readout
Latitude
Unknown
Longitude
Unknown
Altitude
Unknown
Speed
Unknown
Apparent Right ascension
Unknown
Apparent Declination
Unknown
Sunlit
N/A
Visualization observer readout
Local Sidereal Time
09:32:49
Azimuth
Unknown
Elevation
Unknown
Doppler factor
Unknown
Orbital elements
Apogee altitude
768.154 km
Perigee altitude
765.283 km
Semi-major axis
7,144.855 km
Eccentricity
0.0002
Inclination
86.3921°
RAAN
86.7561°
Arg. of periapsis
96.8978°
True anomaly
263.22184°
Mean anomaly
263.2447°
Eccentric anomaly
263.23327°
Mean motion
3.59379 °/min
Orbital period
100.17 mins
BSTAR
0.00023347
Loading maneuver chart data...
Computing Atmospheric mass density...

Documentation

Showing up to 5 results
|